Regional Weather Roundup
Issued by NWS

Home | Current Version | Previous Version | Graphics & Text | Print | Product List | Glossary On
Versions: 1 2 3 4 5 6 7 8 9 10 11 12 13 14 15 16 17 18 19 20 21 22 23 24 25 26 27 28 29 30 31 32 33 34 35 36 37 38 39 40 41 42 43 44 45 46 47 48 49 50
000
ASUS45 KCYS 241910
RWRWY

WYOMING REGIONAL WEATHER ROUNDUP
NATIONAL WEATHER SERVICE CHEYENNE WY
100 PM MDT THU JUL 24 2014

NOTE:  "FAIR" INDICATES FEW OR NO CLOUDS BELOW 12,000 FEET
WITH NO SIGNIFICANT WEATHER AND/OR OBSTRUCTIONS TO VISIBILITY.

WYZ001-242000-
YELLOWSTONE NATIONAL PARK

CITY           SKY/WX    TMP DP  RH WIND       PRES   REMARKS
LK YELLOWSTONE   N/A     70  32  24 W9G17     30.27S
W YELLOWSTONE  NOT AVBL

$$
WYZ002>013-054>058-071-098>099-242000-
NORTHERN WYOMING

CITY           SKY/WX    TMP DP  RH WIND       PRES   REMARKS
JACKSON        SUNNY     79  36  21 SW12      30.17R
CODY           NOT AVBL
GREYBULL       SUNNY     97  39  13 VRB5      29.82F HX  92
WORLAND        SUNNY    100  38  11 SW22G29   29.84F HX  95
SHERIDAN       SUNNY     96  55  25 VRB6      29.82F HX  94
BUFFALO        SUNNY     98  35  11 W16G24    29.91F HX  93
GILLETTE       MOSUNNY   99  41  13 W21G32    29.85F HX  94
HULETT         FAIR      93  57  29 MISG      29.86  HX  92
NEWCASTLE      FAIR      97  37  12 MISG      29.87  HX  92

$$
WYZ014>020-022>026-101>103-242000-
CENTRAL WYOMING

CITY           SKY/WX    TMP DP  RH WIND       PRES   REMARKS
BIG PINEY      MOSUNNY   85  36  17 W21G31    30.21F
PINEDALE       CLEAR     82  32  16 SW22G37   30.21S
DUBOIS         FAIR      77  32  19 W26G37    30.18S
LANDER         SUNNY     92  34  13 SW16G38   30.04F
RIVERTON       MOSUNNY   90  34  13 SW21G32   30.02S
CASPER         PTSUNNY   89  37  16 W17G26    30.02F
DOUGLAS        PTSUNNY   98  44  15 W24G35    29.97F HX  94

$$
WYZ021-027>030-104>119-242000-
SOUTHERN WYOMING

CITY           SKY/WX    TMP DP  RH WIND       PRES   REMARKS
EVANSTON       SUNNY     84  42  22 SW22G30   30.24F
KEMMERER       PTCLDY    84  34  16 SW24G33   30.24S
FORT BRIDGER   FAIR      84  34  16 SW17G32   30.26F
ROCK SPRINGS   CLOUDY    83  43  24 SW25G35   30.21F
DIXON          FAIR      83  42  23 SW22      30.29F
RAWLINS        PTSUNNY   85  39  19 SW26G38   30.22F
SARATOGA       FAIR      79  41  25 SW21G30   30.30S
LARAMIE        MOSUNNY   83  45  26 W22       30.25F
CHEYENNE       MOSUNNY   90  45  21 W26G39    30.14F
TORRINGTON     MOSUNNY   94  49  21 W12       29.93F HX  90
PINE BLUFFS    FAIR      97  41  14 W20G28    30.05F HX  92

$$


USA.gov is the U.S. government's official web portal to all federal, state and local government web resources and services.